Location: Central Falls
(41.8900°N, 71.3929°W)
Time: 03:57:42
(UTC+00:00)

Tiros 1 - Pass Details

Date: 10 December 2023
Orbit: 625 x 658 km, 48.4° (Epoch: 01 March)

Event Time Altitude Azimuth Distance (km) Brightness Sun altitude
Rises 06:21:49 0° 216° (SW) 2,948 - -61.2°
Reaches altitude 10° 06:24:15 10° 209° (SSW) 2,047 - -60.8°
Maximum altitude 06:28:38 39° 141° (SE) 981 - -60.2°
Drops below altitude 10° 06:33:04 10° 73° (ENE) 2,070 - -59.4°
Sets 06:35:32 0° 66° (ENE) 2,987 - -59.0°
